Voltar ao catálogo

FENGYUN 1C DEB

AtivoSSO
NORAD 32198·DEBRIS·🇨🇳 China

Lançado May 10, 1999 de Taiyuan Satellite Launch Center

Loading…

Próximas Passagens (próximas 24 horas)

TLE

EnvelhecendoSource: Space-Track

Época: Sep 8, 2026, 03:04 UTC

1 32198U 99025CUU 26251.12813970  .00002099  00000-0  11546-2 0  9994
2 32198  98.3579  23.7150 0093519 239.3842 119.8083 14.10440602607412

Acompanhe FENGYUN 1C DEB em tempo real com AllMySat

Download on the App Store